Погода в Ульяновске

Россия / Ульяновская область     54°19′00″N   48°24′09″E
темп.,
°C
ветер,
м/с
пор.,
м/с
влажн.,
%
обл.,
%
осадки,
мм/ч
давл.,
гПа
погр.,
м
7 мая, пт
пт701:00+10ююз4775100 0.0 101689
04:00+9ю477498 0.0 101578
07:00+10ю5872100 0.0 1015117
10:00+12ю6962100 0.0 1015304
13:00+14ю81051100 0.0 1015781
16:00+14ю7105489 0.0 1014730
19:00+13ююз5959100 0.0 1013232
22:00+11юз4784100 0.4 1015156
8 мая, сб
сб801:00+10юз2391100 0.8 101564
04:00+9с5698100 3.1 1016103
07:00+8ссв4599100 1.6 101685
10:00+9вюв129125 2.3 1016228
13:00+13зюз247051 0.1 1015456
16:00+13с126888 0.1 1014313
19:00+13ссв227444 0.0 101332
22:00+11юв33765 0.0 101326
9 мая, вс
вс901:00+10ююз337872 0.0 101225
04:00+10ююз337940 0.0 101227
07:00+10ююв347789 0.0 101366
10:00+12ююв3571100 0.0 101393
13:00+15ююв5761100 0.0 1013320
16:00+16ююв4658100 0.0 1012348
19:00+15юв4670100 0.1 101371
22:00+13ююв4681100 0.8 101462
10 мая, пн
пн1001:00+11с4694100 1.3 101564
04:00+10ссв118991 1.3 101611
07:00+11ссз2288100 0.0 101826
10:00+12с3484100 0.0 1019106
13:00+14с4476100 0.0 1021179
16:00+15с5672100 0.1 1021175
19:00+14с5883100 0.3 1022143
22:00+12ссв7119084 1.1 1024190
11 мая, вт
вт1101:00+10ссв6109178 0.0 1025188
04:00+9ссв61093100 0.0 1026199
07:00+9ссв6992100 0.0 1027187
10:00+11ссв5784100 0.0 1028213
13:00+13с5678100 0.0 1028262
16:00+14с687463 0.0 1027191
19:00+13ссв68722 0.0 1027120
22:00+11ссв46765 0.0 102874